Time,TemperatureF,DewpointF,PressureIn,WindDirection,WindDirectionDegrees,WindSpeedMPH,WindSpeedGustMPH,Humidity,HourlyPrecipIn,Conditions,Clouds,dailyrainin,SoftwareType,DateUTC
2013-01-09 00:00:00,44.6,41.8,30.33,East,83,0.0,0.0,90,0.00,,---,0.00,VWS V14.01,2013-01-09 05:00:00,
2013-01-09 00:01:00,44.7,42.0,30.33,East,83,0.0,0.0,90,0.00,,---,0.00,VWS V14.01,2013-01-09 05:01:00,
2013-01-09 00:03:00,44.6,41.8,30.33,East,83,0.0,0.0,90,0.00,,---,0.00,VWS V14.01,2013-01-09 05:03:00,
2013-01-09 00:08:00,44.6,41.8,30.33,East,83,0.0,0.0,90,0.00,,---,0.00,VWS V14.01,2013-01-09 05:08:00,
2013-01-09 00:13:00,44.5,41.8,30.33,East,83,0.0,0.0,90,0.00,,---,0.00,VWS V14.01,2013-01-09 05:13:00,
2013-01-09 00:18:00,44.5,41.8,30.33,East,83,0.0,0.0,90,0.00,,---,0.00,VWS V14.01,2013-01-09 05:18:00,
2013-01-09 00:23:00,44.4,41.7,30.33,East,83,0.0,0.0,90,0.00,,---,0.00,VWS V14.01,2013-01-09 05:23:00,
2013-01-09 00:28:00,44.3,41.6,30.33,East,83,0.0,0.0,90,0.00,,---,0.00,VWS V14.01,2013-01-09 05:28:00,
2013-01-09 00:30:00,44.2,41.5,30.33,East,83,0.0,0.0,90,0.00,,---,0.00,VWS V14.01,2013-01-09 05:30:00,
2013-01-09 00:33:00,44.1,41.4,30.32,East,83,0.0,0.0,90,0.00,,---,0.00,VWS V14.01,2013-01-09 05:33:00,
2013-01-09 00:38:00,43.9,41.2,30.32,East,83,0.0,0.0,90,0.00,,---,0.00,VWS V14.01,2013-01-09 05:38:00,
2013-01-09 00:43:00,43.7,41.0,30.32,East,83,0.0,0.0,90,0.00,,---,0.00,VWS V14.01,2013-01-09 05:43:00,
2013-01-09 00:48:00,43.4,40.7,30.32,East,83,0.0,0.0,90,0.00,,---,0.00,VWS V14.01,2013-01-09 05:48:00,
2013-01-09 00:53:00,43.2,40.5,30.31,East,83,0.0,0.0,90,0.00,,---,0.00,VWS V14.01,2013-01-09 05:53:00,
2013-01-09 00:58:00,42.9,40.2,30.31,East,83,0.0,0.0,90,0.00,,---,0.00,VWS V14.01,2013-01-09 05:58:00,
2013-01-09 01:00:00,42.8,40.1,30.31,East,83,0.0,0.0,90,0.00,,---,0.00,VWS V14.01,2013-01-09 06:00:00,
2013-01-09 01:03:00,42.8,40.1,30.31,East,83,0.0,0.0,90,0.00,,---,0.00,VWS V14.01,2013-01-09 06:03:00,
2013-01-09 01:08:00,42.5,39.8,30.31,East,83,0.0,0.0,90,0.00,,---,0.00,VWS V14.01,2013-01-09 06:08:00,
2013-01-09 01:13:00,42.2,39.8,30.31,East,83,0.0,0.0,91,0.00,,---,0.00,VWS V14.01,2013-01-09 06:13:00,
2013-01-09 01:18:00,41.9,39.5,30.31,East,83,0.0,0.0,91,0.00,,---,0.00,VWS V14.01,2013-01-09 06:18:00,
2013-01-09 01:23:00,41.7,39.3,30.30,East,83,0.0,0.0,91,0.00,,---,0.00,VWS V14.01,2013-01-09 06:23:00,
2013-01-09 01:28:00,41.4,39.0,30.30,East,83,0.0,0.0,91,0.00,,---,0.00,VWS V14.01,2013-01-09 06:28:00,
2013-01-09 01:30:00,41.2,39.1,30.30,East,83,0.0,0.0,92,0.00,,---,0.00,VWS V14.01,2013-01-09 06:30:00,
2013-01-09 01:33:00,41.1,39.0,30.30,East,83,0.0,0.0,92,0.00,,---,0.00,VWS V14.01,2013-01-09 06:33:00,
2013-01-09 01:38:00,40.9,38.5,30.30,East,83,0.0,0.0,91,0.00,,---,0.00,VWS V14.01,2013-01-09 06:38:00,
2013-01-09 01:43:00,40.7,38.6,30.30,East,83,0.0,0.0,92,0.00,,---,0.00,VWS V14.01,2013-01-09 06:43:00,
2013-01-09 01:48:00,40.6,38.5,30.31,East,83,0.0,0.0,92,0.00,,---,0.00,VWS V14.01,2013-01-09 06:48:00,
2013-01-09 01:53:00,40.4,38.3,30.30,East,83,0.0,0.0,92,0.00,,---,0.00,VWS V14.01,2013-01-09 06:53:00,
2013-01-09 01:58:00,40.2,38.1,30.31,East,83,0.0,0.0,92,0.00,,---,0.00,VWS V14.01,2013-01-09 06:58:00,
2013-01-09 02:00:00,40.1,38.2,30.31,East,83,0.0,0.0,93,0.00,,---,0.00,VWS V14.01,2013-01-09 07:00:00,
2013-01-09 02:03:00,40.1,38.2,30.31,East,83,0.0,0.0,93,0.00,,---,0.00,VWS V14.01,2013-01-09 07:03:00,
2013-01-09 02:08:00,39.8,38.0,30.31,East,83,0.0,0.0,93,0.00,,---,0.00,VWS V14.01,2013-01-09 07:08:00,
2013-01-09 02:13:00,39.7,37.8,30.31,East,83,0.0,0.0,93,0.00,,---,0.00,VWS V14.01,2013-01-09 07:13:00,
2013-01-09 02:18:00,39.5,37.7,30.31,East,83,0.0,0.0,93,0.00,,---,0.00,VWS V14.01,2013-01-09 07:18:00,
2013-01-09 02:23:00,39.4,37.5,30.32,East,83,0.0,0.0,93,0.00,,---,0.00,VWS V14.01,2013-01-09 07:23:00,
2013-01-09 02:28:00,39.3,37.5,30.32,East,83,0.0,0.0,93,0.00,,---,0.00,VWS V14.01,2013-01-09 07:28:00,
2013-01-09 02:30:00,39.2,37.3,30.32,East,83,0.0,0.0,93,0.00,,---,0.00,VWS V14.01,2013-01-09 07:30:00,
2013-01-09 02:33:00,39.2,37.3,30.32,East,83,0.0,0.0,93,0.00,,---,0.00,VWS V14.01,2013-01-09 07:33:00,
2013-01-09 02:38:00,39.1,37.2,30.32,East,83,0.0,0.0,93,0.00,,---,0.00,VWS V14.01,2013-01-09 07:38:00,
2013-01-09 02:43:00,39.0,37.2,30.33,East,83,0.0,0.0,93,0.00,,---,0.00,VWS V14.01,2013-01-09 07:43:00,
2013-01-09 02:48:00,38.9,37.3,30.33,East,83,0.0,0.0,94,0.00,,---,0.00,VWS V14.01,2013-01-09 07:48:00,
2013-01-09 02:53:00,38.7,36.8,30.33,East,83,0.0,0.0,93,0.00,,---,0.00,VWS V14.01,2013-01-09 07:53:00,
2013-01-09 02:58:00,38.5,36.7,30.33,East,83,0.0,0.0,93,0.00,,---,0.00,VWS V14.01,2013-01-09 07:58:00,
2013-01-09 03:00:00,38.4,36.8,30.33,East,83,0.0,0.0,94,0.00,,---,0.00,VWS V14.01,2013-01-09 08:00:00,
2013-01-09 03:03:00,38.3,36.5,30.33,East,83,0.0,0.0,93,0.00,,---,0.00,VWS V14.01,2013-01-09 08:03:00,
2013-01-09 03:08:00,38.2,36.6,30.33,East,83,0.0,0.0,94,0.00,,---,0.00,VWS V14.01,2013-01-09 08:08:00,
2013-01-09 03:13:00,38.1,36.5,30.33,East,83,0.0,0.0,94,0.00,,---,0.00,VWS V14.01,2013-01-09 08:13:00,
2013-01-09 03:18:00,38.0,36.4,30.33,East,83,0.0,0.0,94,0.00,,---,0.00,VWS V14.01,2013-01-09 08:18:00,
2013-01-09 03:23:00,37.9,36.3,30.34,East,83,0.0,0.0,94,0.00,,---,0.00,VWS V14.01,2013-01-09 08:23:00,
2013-01-09 03:28:00,37.8,36.2,30.34,East,83,0.0,0.0,94,0.00,,---,0.00,VWS V14.01,2013-01-09 08:28:00,
2013-01-09 03:30:00,37.8,36.2,30.34,East,83,0.0,0.0,94,0.00,,---,0.00,VWS V14.01,2013-01-09 08:30:00,
2013-01-09 03:33:00,37.8,36.2,30.34,East,83,0.0,0.0,94,0.00,,---,0.00,VWS V14.01,2013-01-09 08:33:00,
2013-01-09 03:38:00,37.8,36.5,30.34,East,83,0.0,0.0,95,0.00,,---,0.00,VWS V14.01,2013-01-09 08:38:00,
2013-01-09 03:43:00,37.9,36.6,30.33,East,83,0.0,0.0,95,0.00,,---,0.00,VWS V14.01,2013-01-09 08:43:00,
2013-01-09 03:48:00,38.0,36.7,30.33,East,83,0.0,1.0,95,0.00,,---,0.00,VWS V14.01,2013-01-09 08:48:00,
2013-01-09 03:53:00,38.0,36.7,30.33,East,83,0.0,1.0,95,0.00,,---,0.00,VWS V14.01,2013-01-09 08:53:00,
2013-01-09 03:58:00,38.0,36.7,30.33,East,83,0.0,1.0,95,0.00,,---,0.00,VWS V14.01,2013-01-09 08:58:00,
2013-01-09 04:00:00,38.0,36.7,30.32,East,83,0.0,1.0,95,0.00,,---,0.00,VWS V14.01,2013-01-09 09:00:00,
2013-01-09 04:03:00,37.9,36.6,30.33,East,83,0.0,0.0,95,0.00,,---,0.00,VWS V14.01,2013-01-09 09:03:00,
2013-01-09 04:08:00,37.7,36.4,30.32,East,83,0.0,0.0,95,0.00,,---,0.00,VWS V14.01,2013-01-09 09:08:00,
2013-01-09 04:13:00,37.7,36.4,30.32,East,83,0.0,0.0,95,0.00,,---,0.00,VWS V14.01,2013-01-09 09:13:00,
2013-01-09 04:18:00,37.6,36.3,30.32,East,83,0.0,0.0,95,0.00,,---,0.00,VWS V14.01,2013-01-09 09:18:00,
2013-01-09 04:23:00,37.4,36.1,30.32,East,83,0.0,0.0,95,0.00,,---,0.00,VWS V14.01,2013-01-09 09:23:00,
2013-01-09 04:28:00,37.3,36.0,30.31,East,83,0.0,0.0,95,0.00,,---,0.00,VWS V14.01,2013-01-09 09:28:00,
2013-01-09 04:30:00,37.3,36.0,30.32,East,83,0.0,0.0,95,0.00,,---,0.00,VWS V14.01,2013-01-09 09:30:00,
2013-01-09 04:33:00,37.3,36.0,30.32,East,83,0.0,0.0,95,0.00,,---,0.00,VWS V14.01,2013-01-09 09:33:00,
2013-01-09 04:38:00,37.2,35.9,30.32,East,83,0.0,0.0,95,0.00,,---,0.00,VWS V14.01,2013-01-09 09:38:00,
2013-01-09 04:43:00,37.0,35.7,30.31,East,83,0.0,0.0,95,0.00,,---,0.00,VWS V14.01,2013-01-09 09:43:00,
2013-01-09 04:48:00,36.9,35.6,30.31,East,83,0.0,0.0,95,0.00,,---,0.00,VWS V14.01,2013-01-09 09:48:00,
2013-01-09 04:53:00,36.8,35.5,30.32,East,83,0.0,0.0,95,0.00,,---,0.00,VWS V14.01,2013-01-09 09:53:00,
2013-01-09 04:58:00,36.8,35.5,30.31,East,83,0.0,0.0,95,0.00,,---,0.00,VWS V14.01,2013-01-09 09:58:00,
2013-01-09 05:00:00,36.7,35.4,30.31,East,83,0.0,0.0,95,0.00,,---,0.00,VWS V14.01,2013-01-09 10:00:00,
2013-01-09 05:03:00,36.7,36.7,30.31,East,83,0.0,0.0,100,0.00,,---,0.00,VWS V14.01,2013-01-09 10:03:00,
2013-01-09 05:08:00,36.6,35.3,30.32,East,83,0.0,0.0,95,0.00,,---,0.00,VWS V14.01,2013-01-09 10:08:00,
2013-01-09 05:12:00,36.4,35.1,30.32,East,83,0.0,0.0,95,0.00,,---,0.00,VWS V14.01,2013-01-09 10:12:00,
2013-01-09 05:17:00,36.3,35.0,30.32,East,83,0.0,0.0,95,0.00,,---,0.00,VWS V14.01,2013-01-09 10:17:00,
2013-01-09 05:22:00,36.2,34.9,30.31,East,83,0.0,0.0,95,0.00,,---,0.00,VWS V14.01,2013-01-09 10:22:00,
2013-01-09 05:27:00,36.1,34.8,30.31,East,83,0.0,0.0,95,0.00,,---,0.00,VWS V14.01,2013-01-09 10:27:00,
2013-01-09 05:30:00,36.0,34.7,30.32,East,83,0.0,0.0,95,0.00,,---,0.00,VWS V14.01,2013-01-09 10:30:00,
2013-01-09 05:32:00,35.9,34.6,30.32,East,83,0.0,0.0,95,0.00,,---,0.00,VWS V14.01,2013-01-09 10:32:00,
2013-01-09 05:37:00,35.9,34.6,30.32,East,83,0.0,0.0,95,0.00,,---,0.00,VWS V14.01,2013-01-09 10:37:00,
2013-01-09 05:42:00,35.7,34.4,30.32,East,83,0.0,0.0,95,0.00,,---,0.00,VWS V14.01,2013-01-09 10:42:00,
2013-01-09 05:47:00,35.6,34.3,30.32,East,83,0.0,0.0,95,0.00,,---,0.00,VWS V14.01,2013-01-09 10:47:00,
2013-01-09 05:52:00,35.5,34.2,30.33,East,83,0.0,0.0,95,0.00,,---,0.00,VWS V14.01,2013-01-09 10:52:00,
2013-01-09 05:57:00,35.4,34.1,30.32,East,83,0.0,0.0,95,0.00,,---,0.00,VWS V14.01,2013-01-09 10:57:00,
2013-01-09 06:00:00,35.4,34.1,30.32,East,83,0.0,0.0,95,0.00,,---,0.00,VWS V14.01,2013-01-09 11:00:00,
2013-01-09 06:02:00,35.3,34.0,30.32,East,83,0.0,0.0,95,0.00,,---,0.00,VWS V14.01,2013-01-09 11:02:00,
2013-01-09 06:07:00,35.3,34.0,30.32,East,83,0.0,0.0,95,0.00,,---,0.00,VWS V14.01,2013-01-09 11:07:00,
2013-01-09 06:12:00,35.2,33.9,30.33,East,83,0.0,0.0,95,0.00,,---,0.00,VWS V14.01,2013-01-09 11:12:00,
2013-01-09 06:17:00,35.1,33.8,30.32,East,83,0.0,0.0,95,0.00,,---,0.00,VWS V14.01,2013-01-09 11:17:00,
2013-01-09 06:22:00,35.0,33.7,30.33,East,83,0.0,0.0,95,0.00,,---,0.00,VWS V14.01,2013-01-09 11:22:00,
2013-01-09 06:27:00,35.0,33.7,30.33,East,83,0.0,0.0,95,0.00,,---,0.00,VWS V14.01,2013-01-09 11:27:00,
2013-01-09 06:30:00,34.8,33.5,30.33,East,83,0.0,0.0,95,0.00,,---,0.00,VWS V14.01,2013-01-09 11:30:00,
2013-01-09 06:32:00,34.8,33.5,30.33,East,83,0.0,0.0,95,0.00,,---,0.00,VWS V14.01,2013-01-09 11:32:00,
2013-01-09 06:37:00,34.8,33.5,30.33,East,83,0.0,0.0,95,0.00,,---,0.00,VWS V14.01,2013-01-09 11:37:00,
2013-01-09 06:42:00,34.7,33.4,30.33,East,83,0.0,0.0,95,0.00,,---,0.00,VWS V14.01,2013-01-09 11:42:00,
2013-01-09 06:47:00,34.6,33.3,30.33,East,83,0.0,0.0,95,0.00,,---,0.00,VWS V14.01,2013-01-09 11:47:00,
2013-01-09 06:52:00,34.5,33.2,30.33,East,83,0.0,0.0,95,0.00,,---,0.00,VWS V14.01,2013-01-09 11:52:00,
2013-01-09 06:57:00,34.5,33.2,30.33,East,83,0.0,0.0,95,0.00,,---,0.00,VWS V14.01,2013-01-09 11:57:00,
2013-01-09 07:00:00,34.4,33.1,30.33,East,83,0.0,0.0,95,0.00,,---,0.00,VWS V14.01,2013-01-09 12:00:00,
2013-01-09 07:02:00,34.4,33.1,30.33,East,83,0.0,0.0,95,0.00,,---,0.00,VWS V14.01,2013-01-09 12:02:00,
2013-01-09 07:07:00,34.3,33.0,30.33,East,83,0.0,0.0,95,0.00,,---,0.00,VWS V14.01,2013-01-09 12:07:00,
2013-01-09 07:12:00,34.1,32.8,30.34,East,83,0.0,0.0,95,0.00,,---,0.00,VWS V14.01,2013-01-09 12:12:00,
2013-01-09 07:17:00,34.1,32.8,30.34,East,83,0.0,0.0,95,0.00,,---,0.00,VWS V14.01,2013-01-09 12:17:00,
2013-01-09 07:22:00,34.1,32.8,30.34,East,83,0.0,0.0,95,0.00,,---,0.00,VWS V14.01,2013-01-09 12:22:00,
2013-01-09 07:27:00,34.0,32.7,30.34,East,83,0.0,0.0,95,0.00,,---,0.00,VWS V14.01,2013-01-09 12:27:00,
2013-01-09 07:30:00,33.9,32.6,30.34,East,83,0.0,0.0,95,0.00,,---,0.00,VWS V14.01,2013-01-09 12:30:00,
2013-01-09 07:32:00,33.9,32.6,30.34,East,83,0.0,0.0,95,0.00,,---,0.00,VWS V14.01,2013-01-09 12:32:00,
2013-01-09 07:37:00,33.9,32.6,30.34,East,83,0.0,0.0,95,0.00,,---,0.00,VWS V14.01,2013-01-09 12:37:00,
2013-01-09 07:42:00,33.8,32.5,30.35,East,83,0.0,0.0,95,0.00,,---,0.00,VWS V14.01,2013-01-09 12:42:00,
2013-01-09 07:47:00,33.8,32.5,30.35,East,83,0.0,0.0,95,0.00,,---,0.00,VWS V14.01,2013-01-09 12:47:00,
2013-01-09 07:52:00,33.8,32.5,30.34,East,83,0.0,0.0,95,0.00,,---,0.00,VWS V14.01,2013-01-09 12:52:00,
2013-01-09 07:57:00,33.8,32.5,30.35,East,83,0.0,0.0,95,0.00,,---,0.00,VWS V14.01,2013-01-09 12:57:00,
2013-01-09 08:00:00,33.9,32.9,30.35,East,83,0.0,0.0,96,0.00,,---,0.00,VWS V14.01,2013-01-09 13:00:00,
2013-01-09 08:02:00,33.9,32.9,30.35,East,83,0.0,0.0,96,0.00,,---,0.00,VWS V14.01,2013-01-09 13:02:00,
2013-01-09 08:07:00,33.9,32.9,30.35,East,83,0.0,0.0,96,0.00,,---,0.00,VWS V14.01,2013-01-09 13:07:00,
2013-01-09 08:12:00,33.9,32.9,30.35,East,83,0.0,0.0,96,0.00,,---,0.00,VWS V14.01,2013-01-09 13:12:00,
2013-01-09 08:17:00,34.0,33.0,30.36,East,83,0.0,0.0,96,0.00,,---,0.00,VWS V14.01,2013-01-09 13:17:00,
2013-01-09 08:22:00,34.0,33.0,30.36,East,83,0.0,0.0,96,0.00,,---,0.00,VWS V14.01,2013-01-09 13:22:00,
2013-01-09 08:27:00,34.2,33.2,30.36,East,83,0.0,0.0,96,0.00,,---,0.00,VWS V14.01,2013-01-09 13:27:00,
2013-01-09 08:30:00,34.3,33.3,30.36,North,355,0.0,0.0,96,0.00,,---,0.00,VWS V14.01,2013-01-09 13:30:00,
2013-01-09 08:32:00,34.4,33.4,30.36,North,355,0.0,0.0,96,0.00,,---,0.00,VWS V14.01,2013-01-09 13:32:00,
2013-01-09 08:37:00,34.6,33.6,30.37,North,355,0.0,0.0,96,0.00,,---,0.00,VWS V14.01,2013-01-09 13:37:00,
2013-01-09 08:42:00,35.0,34.0,30.36,North,355,0.0,0.0,96,0.00,,---,0.00,VWS V14.01,2013-01-09 13:42:00,
2013-01-09 08:47:00,35.2,34.2,30.37,North,355,0.0,0.0,96,0.00,,---,0.00,VWS V14.01,2013-01-09 13:47:00,
2013-01-09 08:52:00,35.7,34.9,30.37,North,355,0.0,0.0,97,0.00,,---,0.00,VWS V14.01,2013-01-09 13:52:00,
2013-01-09 08:57:00,36.4,35.6,30.37,North,355,0.0,0.0,97,0.00,,---,0.00,VWS V14.01,2013-01-09 13:57:00,
2013-01-09 09:00:00,36.8,36.0,30.37,North,355,0.0,0.0,97,0.00,,---,0.00,VWS V14.01,2013-01-09 14:00:00,
2013-01-09 09:02:00,37.0,36.2,30.37,North,355,0.0,0.0,97,0.00,,---,0.00,VWS V14.01,2013-01-09 14:02:00,
2013-01-09 09:07:00,37.5,36.7,30.36,North,355,0.0,0.0,97,0.00,,---,0.00,VWS V14.01,2013-01-09 14:07:00,
2013-01-09 09:12:00,38.0,37.2,30.36,North,355,0.0,0.0,97,0.00,,---,0.00,VWS V14.01,2013-01-09 14:12:00,
2013-01-09 09:17:00,38.6,37.8,30.36,North,355,0.0,0.0,97,0.00,,---,0.00,VWS V14.01,2013-01-09 14:17:00,
2013-01-09 09:22:00,39.4,38.6,30.36,North,355,0.0,0.0,97,0.00,,---,0.00,VWS V14.01,2013-01-09 14:22:00,
2013-01-09 09:27:00,40.5,39.7,30.36,North,355,0.0,0.0,97,0.00,,---,0.00,VWS V14.01,2013-01-09 14:27:00,
2013-01-09 09:30:00,41.0,40.2,30.36,NW,305,0.0,0.0,97,0.00,,---,0.00,VWS V14.01,2013-01-09 14:30:00,
2013-01-09 09:32:00,41.2,40.4,30.36,WNW,295,0.0,0.0,97,0.00,,---,0.00,VWS V14.01,2013-01-09 14:32:00,
2013-01-09 09:37:00,41.8,41.0,30.36,WNW,294,0.0,0.0,97,0.00,,---,0.00,VWS V14.01,2013-01-09 14:37:00,
2013-01-09 09:42:00,42.2,41.4,30.36,WNW,294,0.0,0.0,97,0.00,,---,0.00,VWS V14.01,2013-01-09 14:42:00,
2013-01-09 09:47:00,42.7,42.2,30.37,WNW,294,0.0,0.0,98,0.00,,---,0.00,VWS V14.01,2013-01-09 14:47:00,
2013-01-09 09:52:00,43.1,42.3,30.37,WNW,294,0.0,0.0,97,0.00,,---,0.00,VWS V14.01,2013-01-09 14:52:00,
2013-01-09 09:57:00,43.6,42.8,30.37,WNW,294,0.0,0.0,97,0.00,,---,0.00,VWS V14.01,2013-01-09 14:57:00,
2013-01-09 10:00:00,44.1,43.6,30.38,WNW,294,0.0,1.0,98,0.00,,---,0.00,VWS V14.01,2013-01-09 15:00:00,
2013-01-09 10:02:00,44.2,43.4,30.37,WNW,294,0.0,0.0,97,0.00,,---,0.00,VWS V14.01,2013-01-09 15:02:00,
2013-01-09 10:07:00,44.7,44.2,30.37,WNW,294,0.0,1.0,98,0.00,,---,0.00,VWS V14.01,2013-01-09 15:07:00,
2013-01-09 10:12:00,45.3,44.8,30.38,WNW,294,0.0,2.0,98,0.00,,---,0.00,VWS V14.01,2013-01-09 15:12:00,
2013-01-09 10:17:00,46.2,45.4,30.38,WNW,294,0.0,2.0,97,0.00,,---,0.00,VWS V14.01,2013-01-09 15:17:00,
2013-01-09 10:22:00,47.4,45.8,30.38,SSW,200,0.0,2.0,94,0.00,,---,0.00,VWS V14.01,2013-01-09 15:22:00,
2013-01-09 10:27:00,48.3,45.5,30.38,SSW,200,0.0,2.0,90,0.00,,---,0.00,VWS V14.01,2013-01-09 15:27:00,
2013-01-09 10:30:00,48.9,45.8,30.38,WSW,252,3.0,3.0,89,0.00,,---,0.00,VWS V14.01,2013-01-09 15:30:00,
2013-01-09 10:32:00,49.1,45.4,30.38,WSW,252,0.0,3.0,87,0.00,,---,0.00,VWS V14.01,2013-01-09 15:32:00,
2013-01-09 10:37:00,49.9,45.6,30.38,WSW,252,1.0,3.0,85,0.00,,---,0.00,VWS V14.01,2013-01-09 15:37:00,
2013-01-09 10:42:00,50.8,46.2,30.38,WSW,252,0.0,3.0,84,0.00,,---,0.00,VWS V14.01,2013-01-09 15:42:00,
2013-01-09 10:47:00,51.6,46.3,30.37,WSW,252,2.0,3.0,82,0.00,,---,0.00,VWS V14.01,2013-01-09 15:47:00,
2013-01-09 10:52:00,52.5,46.5,30.37,WSW,252,0.0,3.0,80,0.00,,---,0.00,VWS V14.01,2013-01-09 15:52:00,
2013-01-09 10:57:00,53.3,47.0,30.38,WSW,244,1.0,5.0,79,0.00,,---,0.00,VWS V14.01,2013-01-09 15:57:00,
2013-01-09 11:00:00,53.7,47.0,30.37,West,265,0.0,5.0,78,0.00,,---,0.00,VWS V14.01,2013-01-09 16:00:00,
2013-01-09 11:02:00,54.0,47.3,30.37,NNE,22,2.0,3.0,78,0.00,,---,0.00,VWS V14.01,2013-01-09 16:02:00,
2013-01-09 11:07:00,54.8,48.1,30.37,South,191,0.0,3.0,78,0.00,,---,0.00,VWS V14.01,2013-01-09 16:07:00,
2013-01-09 11:12:00,55.7,47.9,30.37,NW,304,2.0,6.0,75,0.00,,---,0.00,VWS V14.01,2013-01-09 16:12:00,
2013-01-09 11:17:00,56.4,48.2,30.37,SSW,195,2.0,6.0,74,0.00,,---,0.00,VWS V14.01,2013-01-09 16:17:00,
2013-01-09 11:22:00,57.0,48.4,30.37,WSW,249,2.0,6.0,73,0.00,,---,0.00,VWS V14.01,2013-01-09 16:22:00,
2013-01-09 11:27:00,57.5,48.6,30.37,West,261,1.0,6.0,72,0.00,,---,0.00,VWS V14.01,2013-01-09 16:27:00,
2013-01-09 11:30:00,57.7,48.4,30.38,WNW,292,0.0,6.0,71,0.00,,---,0.00,VWS V14.01,2013-01-09 16:30:00,
2013-01-09 11:32:00,57.8,48.5,30.37,NNW,346,1.0,3.0,71,0.00,,---,0.00,VWS V14.01,2013-01-09 16:32:00,
2013-01-09 11:37:00,58.1,48.8,30.36,West,267,1.0,4.0,71,0.00,,---,0.00,VWS V14.01,2013-01-09 16:37:00,
2013-01-09 11:42:00,58.4,48.3,30.36,SW,235,2.0,4.0,69,0.00,,---,0.00,VWS V14.01,2013-01-09 16:42:00,
2013-01-09 11:47:00,58.6,48.5,30.36,WNW,295,1.0,4.0,69,0.00,,---,0.00,VWS V14.01,2013-01-09 16:47:00,
2013-01-09 11:52:00,58.9,48.8,30.35,West,260,0.0,4.0,69,0.00,,---,0.00,VWS V14.01,2013-01-09 16:52:00,
2013-01-09 11:57:00,59.2,49.4,30.35,WSW,252,0.0,4.0,70,0.00,,---,0.00,VWS V14.01,2013-01-09 16:57:00,
2013-01-09 12:00:00,59.5,49.7,30.35,WSW,252,1.0,4.0,70,0.00,,---,0.00,VWS V14.01,2013-01-09 17:00:00,
2013-01-09 12:02:00,59.6,49.8,30.34,SSW,207,1.0,3.0,70,0.00,,---,0.00,VWS V14.01,2013-01-09 17:02:00,
2013-01-09 12:07:00,60.0,49.8,30.34,WNW,296,1.0,4.0,69,0.00,,---,0.00,VWS V14.01,2013-01-09 17:07:00,
2013-01-09 12:12:00,60.5,50.3,30.34,WSW,258,3.0,5.0,69,0.00,,---,0.00,VWS V14.01,2013-01-09 17:12:00,
2013-01-09 12:17:00,60.9,50.3,30.34,West,265,1.0,5.0,68,0.00,,---,0.00,VWS V14.01,2013-01-09 17:17:00,
2013-01-09 12:22:00,61.3,50.7,30.33,West,265,0.0,5.0,68,0.00,,---,0.00,VWS V14.01,2013-01-09 17:22:00,
2013-01-09 12:27:00,61.7,50.6,30.32,West,265,0.0,5.0,67,0.00,,---,0.00,VWS V14.01,2013-01-09 17:27:00,
2013-01-09 12:30:00,61.8,50.7,30.32,West,265,0.0,5.0,67,0.00,,---,0.00,VWS V14.01,2013-01-09 17:30:00,
2013-01-09 12:32:00,62.0,50.9,30.32,West,265,0.0,1.0,67,0.00,,---,0.00,VWS V14.01,2013-01-09 17:32:00,
2013-01-09 12:37:00,62.2,51.5,30.32,West,265,0.0,1.0,68,0.00,,---,0.00,VWS V14.01,2013-01-09 17:37:00,
2013-01-09 12:42:00,62.5,51.4,30.32,West,265,1.0,2.0,67,0.00,,---,0.00,VWS V14.01,2013-01-09 17:42:00,
2013-01-09 12:47:00,62.8,51.7,30.32,WSW,250,0.0,3.0,67,0.00,,---,0.00,VWS V14.01,2013-01-09 17:47:00,
2013-01-09 12:52:00,63.3,51.3,30.32,WSW,250,0.0,3.0,65,0.00,,---,0.00,VWS V14.01,2013-01-09 17:52:00,
2013-01-09 12:57:00,63.7,52.1,30.31,WSW,257,1.0,3.0,66,0.00,,---,0.00,VWS V14.01,2013-01-09 17:57:00,
2013-01-09 13:00:00,64.0,51.6,30.31,South,174,0.0,3.0,64,0.00,,---,0.00,VWS V14.01,2013-01-09 18:00:00,
2013-01-09 13:02:00,64.1,51.7,30.31,South,174,1.0,2.0,64,0.00,,---,0.00,VWS V14.01,2013-01-09 18:02:00,
2013-01-09 13:07:00,64.4,51.5,30.31,South,169,0.0,2.0,63,0.00,,---,0.00,VWS V14.01,2013-01-09 18:07:00,
2013-01-09 13:12:00,64.7,52.3,30.31,West,260,0.0,3.0,64,0.00,,---,0.00,VWS V14.01,2013-01-09 18:12:00,
2013-01-09 13:17:00,64.9,51.6,30.30,West,260,1.0,3.0,62,0.00,,---,0.00,VWS V14.01,2013-01-09 18:17:00,
2013-01-09 13:22:00,65.1,52.2,30.30,West,260,0.0,3.0,63,0.00,,---,0.00,VWS V14.01,2013-01-09 18:22:00,
2013-01-09 13:27:00,65.3,52.0,30.30,WSW,258,0.0,3.0,62,0.00,,---,0.00,VWS V14.01,2013-01-09 18:27:00,
2013-01-09 13:30:00,65.4,52.1,30.30,WSW,258,0.0,3.0,62,0.00,,---,0.00,VWS V14.01,2013-01-09 18:30:00,
2013-01-09 13:32:00,65.5,52.2,30.30,WSW,258,0.0,1.0,62,0.00,,---,0.00,VWS V14.01,2013-01-09 18:32:00,
2013-01-09 13:37:00,65.6,51.8,30.30,WSW,258,0.0,2.0,61,0.00,,---,0.00,VWS V14.01,2013-01-09 18:37:00,
2013-01-09 13:41:00,65.8,52.0,30.30,WSW,258,1.0,2.0,61,0.00,,---,0.00,VWS V14.01,2013-01-09 18:41:00,
2013-01-09 13:44:00,65.9,52.1,30.30,WSW,258,0.0,2.0,61,0.00,,---,0.00,VWS V14.01,2013-01-09 18:44:00,
2013-01-09 13:48:00,66.1,51.8,30.30,WSW,258,0.0,3.0,60,0.00,,---,0.00,VWS V14.01,2013-01-09 18:48:00,
2013-01-09 13:49:00,66.1,51.8,30.30,WSW,258,0.0,3.0,60,0.00,,---,0.00,VWS V14.01,2013-01-09 18:49:00,
2013-01-09 13:54:00,66.1,52.3,30.30,WSW,258,1.0,3.0,61,0.00,,---,0.00,VWS V14.01,2013-01-09 18:54:00,
2013-01-09 13:59:00,66.1,52.7,30.29,WSW,258,0.0,3.0,62,0.00,,---,0.00,VWS V14.01,2013-01-09 18:59:00,
2013-01-09 14:00:00,66.2,52.8,30.30,WSW,258,0.0,3.0,62,0.00,,---,0.00,VWS V14.01,2013-01-09 19:00:00,
2013-01-09 14:04:00,66.2,53.2,30.29,WSW,258,0.0,1.0,63,0.00,,---,0.00,VWS V14.01,2013-01-09 19:04:00,
2013-01-09 14:09:00,66.3,52.5,30.29,WSW,258,0.0,1.0,61,0.00,,---,0.00,VWS V14.01,2013-01-09 19:09:00,
2013-01-09 14:14:00,66.3,53.3,30.28,WSW,258,0.0,1.0,63,0.00,,---,0.00,VWS V14.01,2013-01-09 19:14:00,
2013-01-09 14:19:00,66.4,52.6,30.28,West,269,0.0,3.0,61,0.00,,---,0.00,VWS V14.01,2013-01-09 19:19:00,
2013-01-09 14:24:00,66.7,52.8,30.28,West,269,0.0,3.0,61,0.00,,---,0.00,VWS V14.01,2013-01-09 19:24:00,
2013-01-09 14:29:00,66.9,52.1,30.29,SW,234,0.0,3.0,59,0.00,,---,0.00,VWS V14.01,2013-01-09 19:29:00,
2013-01-09 14:30:00,67.1,52.3,30.29,SSW,204,1.0,3.0,59,0.00,,---,0.00,VWS V14.01,2013-01-09 19:30:00,
2013-01-09 14:34:00,67.2,52.4,30.29,SSW,204,1.0,1.0,59,0.00,,---,0.00,VWS V14.01,2013-01-09 19:34:00,
2013-01-09 14:39:00,67.5,52.7,30.29,South,189,0.0,2.0,59,0.00,,---,0.00,VWS V14.01,2013-01-09 19:39:00,
2013-01-09 14:44:00,67.6,52.8,30.29,West,274,0.0,3.0,59,0.00,,---,0.00,VWS V14.01,2013-01-09 19:44:00,
2013-01-09 14:49:00,67.7,52.9,30.30,West,274,1.0,3.0,59,0.00,,---,0.00,VWS V14.01,2013-01-09 19:49:00,
2013-01-09 14:54:00,67.7,52.9,30.30,West,274,0.0,3.0,59,0.00,,---,0.00,VWS V14.01,2013-01-09 19:54:00,
2013-01-09 14:59:00,67.6,52.8,30.30,West,270,2.0,3.0,59,0.00,,---,0.00,VWS V14.01,2013-01-09 19:59:00,
2013-01-09 15:00:00,67.6,52.3,30.30,West,270,0.0,3.0,58,0.00,,---,0.00,VWS V14.01,2013-01-09 20:00:00,
2013-01-09 15:04:00,67.5,52.2,30.30,West,270,1.0,2.0,58,0.00,,---,0.00,VWS V14.01,2013-01-09 20:04:00,
2013-01-09 15:08:00,67.4,52.6,30.30,West,279,0.0,3.0,59,0.00,,---,0.00,VWS V14.01,2013-01-09 20:08:00,
2013-01-09 15:13:00,67.4,52.6,30.30,West,273,0.0,3.0,59,0.00,,---,0.00,VWS V14.01,2013-01-09 20:13:00,
2013-01-09 15:18:00,67.2,52.4,30.30,West,273,1.0,3.0,59,0.00,,---,0.00,VWS V14.01,2013-01-09 20:18:00,
2013-01-09 15:23:00,67.1,52.3,30.30,West,268,0.0,3.0,59,0.00,,---,0.00,VWS V14.01,2013-01-09 20:23:00,
2013-01-09 15:28:00,67.0,52.7,30.30,West,268,0.0,3.0,60,0.00,,---,0.00,VWS V14.01,2013-01-09 20:28:00,
2013-01-09 15:30:00,67.0,53.1,30.30,West,268,0.0,3.0,61,0.00,,---,0.00,VWS V14.01,2013-01-09 20:30:00,
2013-01-09 15:33:00,67.0,53.1,30.30,West,268,0.0,0.0,61,0.00,,---,0.00,VWS V14.01,2013-01-09 20:33:00,
2013-01-09 15:38:00,66.9,53.0,30.29,West,268,0.0,0.0,61,0.00,,---,0.00,VWS V14.01,2013-01-09 20:38:00,
2013-01-09 15:43:00,66.8,52.9,30.30,West,268,0.0,0.0,61,0.00,,---,0.00,VWS V14.01,2013-01-09 20:43:00,
2013-01-09 15:48:00,66.6,53.2,30.30,West,268,0.0,0.0,62,0.00,,---,0.00,VWS V14.01,2013-01-09 20:48:00,
2013-01-09 15:54:00,66.5,53.1,30.30,West,268,0.0,0.0,62,0.00,,---,0.00,VWS V14.01,2013-01-09 20:54:00,
2013-01-09 15:59:00,66.2,53.2,30.30,West,268,0.0,0.0,63,0.00,,---,0.00,VWS V14.01,2013-01-09 20:59:00,
2013-01-09 16:00:00,66.1,53.2,30.30,West,268,0.0,0.0,63,0.00,,---,0.00,VWS V14.01,2013-01-09 21:00:00,
2013-01-09 16:04:00,66.0,53.5,30.29,West,268,0.0,0.0,64,0.00,,---,0.00,VWS V14.01,2013-01-09 21:04:00,
2013-01-09 16:09:00,65.7,53.6,30.29,West,268,0.0,0.0,65,0.00,,---,0.00,VWS V14.01,2013-01-09 21:09:00,
2013-01-09 16:14:00,65.5,53.8,30.29,West,268,0.0,0.0,66,0.00,,---,0.00,VWS V14.01,2013-01-09 21:14:00,
2013-01-09 16:19:00,65.3,54.1,30.29,West,268,0.0,0.0,67,0.00,,---,0.00,VWS V14.01,2013-01-09 21:19:00,
2013-01-09 16:24:00,65.0,53.8,30.29,West,268,0.0,0.0,67,0.00,,---,0.00,VWS V14.01,2013-01-09 21:24:00,
2013-01-09 16:29:00,64.7,53.9,30.29,West,268,0.0,0.0,68,0.00,,---,0.00,VWS V14.01,2013-01-09 21:29:00,
2013-01-09 16:30:00,64.6,54.2,30.29,West,268,0.0,0.0,69,0.00,,---,0.00,VWS V14.01,2013-01-09 21:30:00,
2013-01-09 16:34:00,64.5,54.1,30.30,West,268,0.0,0.0,69,0.00,,---,0.00,VWS V14.01,2013-01-09 21:34:00,
2013-01-09 16:39:00,64.3,53.9,30.29,West,268,0.0,0.0,69,0.00,,---,0.00,VWS V14.01,2013-01-09 21:39:00,
2013-01-09 16:44:00,64.0,54.0,30.29,West,268,0.0,0.0,70,0.00,,---,0.00,VWS V14.01,2013-01-09 21:44:00,
2013-01-09 16:49:00,63.6,54.0,30.30,West,268,0.0,0.0,71,0.00,,---,0.00,VWS V14.01,2013-01-09 21:49:00,
2013-01-09 16:54:00,63.3,54.1,30.29,West,268,0.0,0.0,72,0.00,,---,0.00,VWS V14.01,2013-01-09 21:54:00,
2013-01-09 16:59:00,63.0,54.2,30.30,West,268,0.0,0.0,73,0.00,,---,0.00,VWS V14.01,2013-01-09 21:59:00,
2013-01-09 17:00:00,62.8,54.0,30.30,West,268,0.0,0.0,73,0.00,,---,0.00,VWS V14.01,2013-01-09 22:00:00,
2013-01-09 17:04:00,62.7,54.3,30.30,West,268,0.0,0.0,74,0.00,,---,0.00,VWS V14.01,2013-01-09 22:04:00,
2013-01-09 17:09:00,62.4,54.0,30.29,West,268,0.0,0.0,74,0.00,,---,0.00,VWS V14.01,2013-01-09 22:09:00,
2013-01-09 17:14:00,62.0,53.6,30.29,West,268,0.0,0.0,74,0.00,,---,0.00,VWS V14.01,2013-01-09 22:14:00,
2013-01-09 17:19:00,61.7,53.7,30.29,West,268,0.0,0.0,75,0.00,,---,0.00,VWS V14.01,2013-01-09 22:19:00,
2013-01-09 17:24:00,61.4,53.4,30.30,West,268,0.0,0.0,75,0.00,,---,0.00,VWS V14.01,2013-01-09 22:24:00,
2013-01-09 17:28:00,61.1,53.5,30.30,West,268,0.0,0.0,76,0.00,,---,0.00,VWS V14.01,2013-01-09 22:28:00,
2013-01-09 17:30:00,61.0,53.4,30.30,West,268,0.0,0.0,76,0.00,,---,0.00,VWS V14.01,2013-01-09 22:30:00,
2013-01-09 17:33:00,60.8,53.5,30.31,West,268,0.0,0.0,77,0.00,,---,0.00,VWS V14.01,2013-01-09 22:33:00,
2013-01-09 17:39:00,60.4,53.5,30.31,West,268,0.0,0.0,78,0.00,,---,0.00,VWS V14.01,2013-01-09 22:39:00,
2013-01-09 17:44:00,60.0,53.1,30.30,West,268,0.0,0.0,78,0.00,,---,0.00,VWS V14.01,2013-01-09 22:44:00,
2013-01-09 17:49:00,59.6,53.1,30.30,West,268,0.0,0.0,79,0.00,,---,0.00,VWS V14.01,2013-01-09 22:49:00,
2013-01-09 17:54:00,59.5,53.0,30.31,West,268,0.0,0.0,79,0.00,,---,0.00,VWS V14.01,2013-01-09 22:54:00,
2013-01-09 17:58:00,59.2,52.7,30.31,West,268,0.0,0.0,79,0.00,,---,0.00,VWS V14.01,2013-01-09 22:58:00,
2013-01-09 18:00:00,59.1,52.9,30.30,West,268,0.0,0.0,80,0.00,,---,0.00,VWS V14.01,2013-01-09 23:00:00,
2013-01-09 18:04:00,59.0,53.2,30.30,West,268,0.0,0.0,81,0.00,,---,0.00,VWS V14.01,2013-01-09 23:04:00,
2013-01-09 18:08:00,58.7,52.6,30.30,West,268,0.0,0.0,80,0.00,,---,0.00,VWS V14.01,2013-01-09 23:08:00,
2013-01-09 18:14:00,58.5,52.7,30.30,West,268,0.0,0.0,81,0.00,,---,0.00,VWS V14.01,2013-01-09 23:14:00,
2013-01-09 18:18:00,58.2,52.7,30.30,West,268,0.0,0.0,82,0.00,,---,0.00,VWS V14.01,2013-01-09 23:18:00,
2013-01-09 18:23:00,57.9,52.5,30.30,West,268,0.0,0.0,82,0.00,,---,0.00,VWS V14.01,2013-01-09 23:23:00,
2013-01-09 18:28:00,57.7,51.9,30.30,West,268,0.0,0.0,81,0.00,,---,0.00,VWS V14.01,2013-01-09 23:28:00,
2013-01-09 18:30:00,57.6,51.8,30.30,West,268,0.0,0.0,81,0.00,,---,0.00,VWS V14.01,2013-01-09 23:30:00,
2013-01-09 18:34:00,57.5,52.1,30.30,West,268,0.0,0.0,82,0.00,,---,0.00,VWS V14.01,2013-01-09 23:34:00,
2013-01-09 18:39:00,57.2,52.1,30.30,West,268,0.0,0.0,83,0.00,,---,0.00,VWS V14.01,2013-01-09 23:39:00,
2013-01-09 18:44:00,57.0,52.2,30.29,West,268,0.0,0.0,84,0.00,,---,0.00,VWS V14.01,2013-01-09 23:44:00,
2013-01-09 18:49:00,56.7,52.2,30.28,West,268,0.0,0.0,85,0.00,,---,0.00,VWS V14.01,2013-01-09 23:49:00,
2013-01-09 18:54:00,56.5,51.7,30.28,West,268,0.0,0.0,84,0.00,,---,0.00,VWS V14.01,2013-01-09 23:54:00,
2013-01-09 18:58:00,56.3,51.9,30.28,West,268,0.0,0.0,85,0.00,,---,0.00,VWS V14.01,2013-01-09 23:58:00,
2013-01-09 19:00:00,56.2,51.8,30.28,West,268,0.0,0.0,85,0.00,,---,0.00,VWS V14.01,2013-01-10 00:00:00,
2013-01-09 19:03:00,56.2,51.8,30.29,West,268,0.0,0.0,85,0.00,,---,0.00,VWS V14.01,2013-01-10 00:03:00,
2013-01-09 19:08:00,55.8,51.4,30.29,West,268,0.0,0.0,85,0.00,,---,0.00,VWS V14.01,2013-01-10 00:08:00,
2013-01-09 19:13:00,55.6,51.2,30.29,West,268,0.0,0.0,85,0.00,,---,0.00,VWS V14.01,2013-01-10 00:13:00,
2013-01-09 19:18:00,55.4,50.7,30.29,West,268,0.0,0.0,84,0.00,,---,0.00,VWS V14.01,2013-01-10 00:18:00,
2013-01-09 19:23:00,55.1,50.7,30.30,West,268,0.0,0.0,85,0.00,,---,0.00,VWS V14.01,2013-01-10 00:23:00,
2013-01-09 19:28:00,54.6,50.8,30.29,West,268,0.0,0.0,87,0.00,,---,0.00,VWS V14.01,2013-01-10 00:28:00,
2013-01-09 19:30:00,54.4,50.6,30.29,West,268,0.0,0.0,87,0.00,,---,0.00,VWS V14.01,2013-01-10 00:30:00,
2013-01-09 19:33:00,54.3,50.8,30.29,West,268,0.0,0.0,88,0.00,,---,0.00,VWS V14.01,2013-01-10 00:33:00,
2013-01-09 19:38:00,54.1,50.3,30.30,West,268,0.0,0.0,87,0.00,,---,0.00,VWS V14.01,2013-01-10 00:38:00,
2013-01-09 19:43:00,53.8,50.0,30.30,West,268,0.0,0.0,87,0.00,,---,0.00,VWS V14.01,2013-01-10 00:43:00,
2013-01-09 19:48:00,53.6,50.1,30.30,West,268,0.0,0.0,88,0.00,,---,0.00,VWS V14.01,2013-01-10 00:48:00,
2013-01-09 19:53:00,53.4,49.9,30.30,West,268,0.0,0.0,88,0.00,,---,0.00,VWS V14.01,2013-01-10 00:53:00,
2013-01-09 19:58:00,53.0,49.5,30.30,West,268,0.0,0.0,88,0.00,,---,0.00,VWS V14.01,2013-01-10 00:58:00,
2013-01-09 20:00:00,53.0,49.5,30.30,West,268,0.0,0.0,88,0.00,,---,0.00,VWS V14.01,2013-01-10 01:00:00,
2013-01-09 20:03:00,52.8,49.7,30.30,West,268,0.0,0.0,89,0.00,,---,0.00,VWS V14.01,2013-01-10 01:03:00,
2013-01-09 20:08:00,52.6,49.5,30.31,West,268,0.0,0.0,89,0.00,,---,0.00,VWS V14.01,2013-01-10 01:08:00,
2013-01-09 20:13:00,52.4,49.3,30.31,West,268,0.0,0.0,89,0.00,,---,0.00,VWS V14.01,2013-01-10 01:13:00,
2013-01-09 20:18:00,52.1,49.0,30.31,West,268,0.0,0.0,89,0.00,,---,0.00,VWS V14.01,2013-01-10 01:18:00,
2013-01-09 20:23:00,51.8,49.0,30.31,West,268,0.0,0.0,90,0.00,,---,0.00,VWS V14.01,2013-01-10 01:23:00,
2013-01-09 20:28:00,51.7,48.9,30.31,West,268,0.0,0.0,90,0.00,,---,0.00,VWS V14.01,2013-01-10 01:28:00,
2013-01-09 20:30:00,51.6,48.8,30.31,West,268,0.0,0.0,90,0.00,,---,0.00,VWS V14.01,2013-01-10 01:30:00,
2013-01-09 20:33:00,51.5,48.7,30.31,West,268,0.0,0.0,90,0.00,,---,0.00,VWS V14.01,2013-01-10 01:33:00,
2013-01-09 20:38:00,51.3,48.8,30.31,West,268,0.0,0.0,91,0.00,,---,0.00,VWS V14.01,2013-01-10 01:38:00,
2013-01-09 20:43:00,51.1,48.6,30.32,West,268,0.0,0.0,91,0.00,,---,0.00,VWS V14.01,2013-01-10 01:43:00,
2013-01-09 20:48:00,50.9,48.4,30.32,West,268,0.0,0.0,91,0.00,,---,0.00,VWS V14.01,2013-01-10 01:48:00,
2013-01-09 20:53:00,50.7,48.2,30.32,West,268,0.0,0.0,91,0.00,,---,0.00,VWS V14.01,2013-01-10 01:53:00,
2013-01-09 20:58:00,50.5,48.0,30.32,West,268,0.0,0.0,91,0.00,,---,0.00,VWS V14.01,2013-01-10 01:58:00,
2013-01-09 21:00:00,50.4,47.9,30.32,West,268,0.0,0.0,91,0.00,,---,0.00,VWS V14.01,2013-01-10 02:00:00,
2013-01-09 21:03:00,50.4,47.9,30.32,West,268,0.0,0.0,91,0.00,,---,0.00,VWS V14.01,2013-01-10 02:03:00,
2013-01-09 21:08:00,50.1,47.6,30.32,West,268,0.0,0.0,91,0.00,,---,0.00,VWS V14.01,2013-01-10 02:08:00,
2013-01-09 21:13:00,49.9,47.4,30.32,West,268,0.0,0.0,91,0.00,,---,0.00,VWS V14.01,2013-01-10 02:13:00,
2013-01-09 21:18:00,49.8,47.3,30.32,West,268,0.0,0.0,91,0.00,,---,0.00,VWS V14.01,2013-01-10 02:18:00,
2013-01-09 21:23:00,49.6,47.4,30.32,West,268,0.0,0.0,92,0.00,,---,0.00,VWS V14.01,2013-01-10 02:23:00,
2013-01-09 21:28:00,49.5,47.3,30.32,West,268,0.0,0.0,92,0.00,,---,0.00,VWS V14.01,2013-01-10 02:28:00,
2013-01-09 21:30:00,49.4,47.2,30.32,West,268,0.0,0.0,92,0.00,,---,0.00,VWS V14.01,2013-01-10 02:30:00,
2013-01-09 21:33:00,49.3,47.1,30.32,West,268,0.0,0.0,92,0.00,,---,0.00,VWS V14.01,2013-01-10 02:33:00,
2013-01-09 21:38:00,49.1,46.9,30.33,West,268,0.0,0.0,92,0.00,,---,0.00,VWS V14.01,2013-01-10 02:38:00,
2013-01-09 21:43:00,48.9,46.7,30.33,West,268,0.0,0.0,92,0.00,,---,0.00,VWS V14.01,2013-01-10 02:43:00,
2013-01-09 21:48:00,48.7,46.8,30.33,West,268,0.0,0.0,93,0.00,,---,0.00,VWS V14.01,2013-01-10 02:48:00,
2013-01-09 21:53:00,48.6,46.7,30.33,West,268,0.0,0.0,93,0.00,,---,0.00,VWS V14.01,2013-01-10 02:53:00,
2013-01-09 21:58:00,48.4,46.5,30.33,West,268,0.0,0.0,93,0.00,,---,0.00,VWS V14.01,2013-01-10 02:58:00,
2013-01-09 22:00:00,48.3,46.4,30.33,West,268,0.0,0.0,93,0.00,,---,0.00,VWS V14.01,2013-01-10 03:00:00,
2013-01-09 22:03:00,48.2,46.3,30.33,West,268,0.0,0.0,93,0.00,,---,0.00,VWS V14.01,2013-01-10 03:03:00,
2013-01-09 22:08:00,48.1,46.2,30.33,West,268,0.0,0.0,93,0.00,,---,0.00,VWS V14.01,2013-01-10 03:08:00,
2013-01-09 22:13:00,47.9,46.0,30.33,West,268,0.0,0.0,93,0.00,,---,0.00,VWS V14.01,2013-01-10 03:13:00,
2013-01-09 22:18:00,47.8,46.2,30.33,West,268,0.0,0.0,94,0.00,,---,0.00,VWS V14.01,2013-01-10 03:18:00,
2013-01-09 22:23:00,47.7,46.1,30.33,West,268,0.0,0.0,94,0.00,,---,0.00,VWS V14.01,2013-01-10 03:23:00,
2013-01-09 22:28:00,47.6,46.0,30.34,West,268,0.0,0.0,94,0.00,,---,0.00,VWS V14.01,2013-01-10 03:28:00,
2013-01-09 22:30:00,47.5,45.9,30.34,West,268,0.0,0.0,94,0.00,,---,0.00,VWS V14.01,2013-01-10 03:30:00,
2013-01-09 22:33:00,47.5,45.9,30.34,West,268,0.0,0.0,94,0.00,,---,0.00,VWS V14.01,2013-01-10 03:33:00,
2013-01-09 22:38:00,47.4,45.8,30.34,West,268,0.0,0.0,94,0.00,,---,0.00,VWS V14.01,2013-01-10 03:38:00,
2013-01-09 22:43:00,47.5,46.1,30.34,West,268,0.0,0.0,95,0.00,,---,0.00,VWS V14.01,2013-01-10 03:43:00,
2013-01-09 22:48:00,47.4,46.0,30.34,West,268,0.0,0.0,95,0.00,,---,0.00,VWS V14.01,2013-01-10 03:48:00,
2013-01-09 22:53:00,47.4,46.0,30.34,West,268,0.0,0.0,95,0.00,,---,0.00,VWS V14.01,2013-01-10 03:53:00,
2013-01-09 22:58:00,47.4,46.0,30.34,West,268,0.0,0.0,95,0.00,,---,0.00,VWS V14.01,2013-01-10 03:58:00,
2013-01-09 23:00:00,47.4,46.0,30.34,West,268,0.0,0.0,95,0.00,,---,0.00,VWS V14.01,2013-01-10 04:00:00,
2013-01-09 23:03:00,47.4,46.0,30.34,West,268,0.0,0.0,95,0.00,,---,0.00,VWS V14.01,2013-01-10 04:03:00,
2013-01-09 23:08:00,47.5,46.1,30.34,West,268,0.0,0.0,95,0.00,,---,0.00,VWS V14.01,2013-01-10 04:08:00,
2013-01-09 23:13:00,47.5,46.4,30.34,West,268,0.0,0.0,96,0.00,,---,0.00,VWS V14.01,2013-01-10 04:13:00,
2013-01-09 23:18:00,47.5,46.4,30.34,West,268,0.0,0.0,96,0.00,,---,0.00,VWS V14.01,2013-01-10 04:18:00,
2013-01-09 23:23:00,47.5,46.4,30.34,West,268,0.0,0.0,96,0.00,,---,0.00,VWS V14.01,2013-01-10 04:23:00,
2013-01-09 23:28:00,47.6,46.5,30.34,West,268,0.0,0.0,96,0.00,,---,0.00,VWS V14.01,2013-01-10 04:28:00,
2013-01-09 23:30:00,47.6,46.5,30.34,West,268,0.0,0.0,96,0.00,,---,0.00,VWS V14.01,2013-01-10 04:30:00,
2013-01-09 23:33:00,47.6,46.5,30.34,West,268,0.0,0.0,96,0.00,,---,0.00,VWS V14.01,2013-01-10 04:33:00,
2013-01-09 23:38:00,47.6,46.5,30.34,West,268,0.0,0.0,96,0.00,,---,0.00,VWS V14.01,2013-01-10 04:38:00,
2013-01-09 23:43:00,47.6,46.5,30.34,West,268,0.0,0.0,96,0.00,,---,0.00,VWS V14.01,2013-01-10 04:43:00,
2013-01-09 23:48:00,47.6,46.5,30.34,West,268,0.0,0.0,96,0.00,,---,0.00,VWS V14.01,2013-01-10 04:48:00,
2013-01-09 23:53:00,47.7,46.6,30.34,West,268,0.0,0.0,96,0.00,,---,0.00,VWS V14.01,2013-01-10 04:53:00,
2013-01-09 23:58:00,47.7,46.6,30.35,West,268,0.0,0.0,96,0.00,,---,0.00,VWS V14.01,2013-01-10 04:58:00,